KC8JWT Weather Reports


time (UTC)temp
C
wind
direction
speed
KPH
gust
KPH
rain 1hr
cm
rain 24hr
cm
rain mn
cm
humidity
%
barometer
mb
20260906133505 22 83 1.6 3.2 0.00 0.00 0.00 73 1015.9
20260906133000 21 99 1.6 1.6 0.00 0.00 0.00 74 1016.1
20260906132500 21 105 4.8 8.0 0.00 0.00 0.00 75 1015.8
20260906131955 21 87 8.0 11.3 0.00 0.00 0.00 74 1015.8
20260906131451 21 74 6.4 9.7 0.00 0.00 0.00 75 1015.7
20260906130946 21 68 3.2 4.8 0.00 0.00 0.00 75 1015.7
20260906130445 21 65 3.2 3.2 0.00 0.00 0.00 75 1015.6
20260906125940 20 116 1.6 4.8 0.00 0.00 0.00 76 1015.6
20260906125438 20 41 4.8 4.8 0.00 0.00 0.00 77 1015.8
20260906124937 20 93 3.2 4.8 0.00 0.00 0.00 77 1015.7
20260906124434 20 59 0.0 1.6 0.00 0.00 0.00 79 1015.6
20260906123933 20 84 1.6 1.6 0.00 0.00 0.00 79 1015.6
20260906123432 20 113 0.0 1.6 0.00 0.00 0.00 80 1015.5
20260906122927 20 85 1.6 1.6 0.00 0.00 0.00 80 1015.7
20260906122421 19 74 3.2 3.2 0.00 0.00 0.00 81 1015.3
20260906121919 20 84 1.6 3.2 0.00 0.00 0.00 80 1015.6
20260906121414 20 110 1.6 1.6 0.00 0.00 0.00 80 1015.5
20260906120910 19 96 1.6 3.2 0.00 0.00 0.00 81 1015.3
20260906120406 19 92 3.2 3.2 0.00 0.00 0.00 82 1015.0
20260906115902 19 138 3.2 4.8 0.00 0.00 0.00 82 1015.1
20260906115357 19 112 1.6 3.2 0.00 0.00 0.00 83 1015.2
20260906114856 18 58 1.6 1.6 0.00 0.00 0.00 84 1015.1
20260906114352 18 263 1.6 1.6 0.00 0.00 0.00 85 1015.1
20260906113847 18 97 1.6 3.2 0.00 0.00 0.00 85 1015.2
20260906113346 18 85 1.6 1.6 0.00 0.00 0.00 85 1014.9
20260906112841 18 357 4.8 8.0 0.00 0.00 0.00 85 1014.9
20260906112337 18 89 1.6 1.6 0.00 0.00 0.00 85 1014.7
20260906111832 18 80 0.0 1.6 0.00 0.00 0.00 85 1014.8
20260906111331 18 70 0.0 1.6 0.00 0.00 0.00 85 1014.6
20260906110826 18 49 3.2 8.0 0.00 0.00 0.00 85 1014.6
20260906110323 18 92 0.0 0.0 0.00 0.00 0.00 85 1014.5
20260906105821 18 84 1.6 1.6 0.00 0.00 0.00 85 1014.4
20260906105317 18 61 1.6 1.6 0.00 0.00 0.00 86 1014.4
20260906104813 18 93 0.0 0.0 0.00 0.00 0.00 86 1014.1
20260906104311 18 63 1.6 1.6 0.00 0.00 0.00 86 1014.0
20260906103810 18 87 0.0 0.0 0.00 0.00 0.00 86 1014.2
20260906103309 18 75 1.6 1.6 0.00 0.00 0.00 86 1014.2
20260906102805 19 60 3.2 3.2 0.00 0.00 0.00 85 1013.8
20260906102306 19 55 1.6 3.2 0.00 0.00 0.00 85 1014.2
20260906101759 19 88 1.6 3.2 0.00 0.00 0.00 86 1014.1
20260906101254 19 78 1.6 3.2 0.00 0.00 0.00 86 1013.8
20260906100749 19 51 1.6 3.2 0.00 0.00 0.00 86 1014.0
20260906100249 19 66 1.6 1.6 0.00 0.00 0.00 86 1014.0
20260906095744 19 62 3.2 3.2 0.00 0.00 0.00 86 1013.9
20260906095239 19 39 4.8 4.8 0.00 0.00 0.00 86 1013.9
20260906094738 20 87 0.0 1.6 0.00 0.00 0.00 86 1013.8
20260906094234 20 70 4.8 4.8 0.00 0.00 0.00 86 1013.8
20260906093730 20 72 1.6 1.6 0.00 0.00 0.00 86 1013.8
20260906093225 20 83 1.6 1.6 0.00 0.00 0.00 85 1013.9
20260906092721 20 35 0.0 1.6 0.00 0.00 0.00 86 1014.1
20260906092214 20 81 1.6 1.6 0.00 0.00 0.00 86 1014.0
20260906091710 20 33 4.8 8.0 0.00 0.00 0.00 86 1013.9
20260906091207 20 102 0.0 0.0 0.00 0.00 0.00 86 1013.7
20260906090702 20 74 0.0 1.6 0.00 0.00 0.00 86 1013.7
20260906090201 20 40 3.2 4.8 0.00 0.00 0.00 86 1013.4
20260906085701 20 70 1.6 1.6 0.00 0.00 0.00 86 1013.6
20260906085155 20 87 0.0 0.0 0.00 0.00 0.00 87 1013.5
20260906084655 20 74 3.2 4.8 0.00 0.00 0.00 87 1013.6
20260906084154 21 93 0.0 1.6 0.00 0.00 0.00 87 1013.8
20260906083649 21 44 3.2 8.0 0.00 0.00 0.00 87 1013.7
20260906083145 21 78 1.6 3.2 0.00 0.00 0.00 87 1013.8
20260906082640 21 41 1.6 3.2 0.00 0.00 0.00 88 1013.6
20260906082135 21 63 3.2 3.2 0.00 0.00 0.00 88 1013.8
20260906081631 21 52 3.2 3.2 0.00 0.00 0.00 89 1013.7
20260906081126 21 45 4.8 4.8 0.00 0.00 0.00 89 1013.8
20260906080623 21 71 3.2 3.2 0.00 0.00 0.00 89 1013.6
20260906080119 21 84 6.4 8.0 0.00 0.00 0.00 88 1013.7
20260906075618 21 82 3.2 4.8 0.00 0.00 0.00 88 1013.7
20260906075113 21 38 6.4 9.7 0.00 0.00 0.00 87 1013.6
20260906074608 21 54 1.6 3.2 0.00 0.00 0.00 88 1013.4
20260906074107 21 29 6.4 9.7 0.00 0.00 0.00 88 1013.3
20260906073602 21 38 3.2 4.8 0.00 0.00 0.00 88 1013.5
20260906073052 21 37 1.6 3.2 0.00 0.00 0.00 88 1013.6
20260906072546 21 67 1.6 1.6 0.00 0.00 0.00 88 1013.7
20260906072042 21 46 1.6 3.2 0.00 0.00 0.00 88 1013.3
20260906071539 22 70 1.6 1.6 0.00 0.00 0.00 88 1013.5
20260906071033 22 49 1.6 3.2 0.00 0.00 0.00 88 1013.6
20260906070531 22 76 1.6 1.6 0.00 0.00 0.00 87 1013.6
20260906070026 22 43 1.6 4.8 0.00 0.00 0.00 87 1013.6
20260906065525 22 88 1.6 1.6 0.00 0.00 0.00 87 1013.5
20260906065021 22 67 1.6 1.6 0.00 0.00 0.00 87 1013.7
20260906064517 22 80 1.6 3.2 0.00 0.00 0.00 87 1013.4
20260906064017 22 87 3.2 4.8 0.00 0.00 0.00 87 1013.7
20260906063512 22 68 1.6 1.6 0.00 0.00 0.00 88 1013.9
20260906063008 22 67 1.6 1.6 0.00 0.00 0.00 88 1013.6
20260906062502 22 99 0.0 1.6 0.00 0.00 0.00 88 1013.6
20260906061957 22 69 3.2 3.2 0.00 0.00 0.00 88 1013.6
20260906061454 22 67 4.8 8.0 0.00 0.00 0.00 89 1013.7
20260906060953 22 35 3.2 4.8 0.00 0.00 0.00 90 1013.7
20260906060450 22 59 1.6 3.2 0.00 0.00 0.00 91 1013.8
20260906055947 22 55 1.6 3.2 0.00 0.00 0.00 91 1013.6
20260906055442 22 22 4.8 8.0 0.00 0.00 0.00 92 1013.6
20260906054937 22 68 0.0 1.6 0.00 0.00 0.00 92 1013.6
20260906054432 22 68 0.0 1.6 0.00 0.00 0.00 92 1013.6
20260906053928 22 68 0.0 0.0 0.00 0.00 0.00 92 1013.7
20260906053424 22 68 0.0 0.0 0.00 0.00 0.00 92 1013.5
20260906052919 22 67 0.0 1.6 0.00 0.00 0.00 92 1013.6
20260906052416 22 75 0.0 0.0 0.00 0.00 0.00 92 1013.5
20260906051912 22 82 0.0 1.6 0.00 0.00 0.00 91 1013.8
20260906051412 22 84 0.0 0.0 0.00 0.00 0.00 91 1013.3
20260906050909 22 84 0.0 1.6 0.00 0.00 0.00 91 1013.6
20260906050408 22 84 0.0 1.6 0.00 0.00 0.00 90 1013.5
20260906045907 22 84 1.6 1.6 0.00 0.00 0.00 90 1013.5
20260906045406 22 84 0.0 1.6 0.00 0.00 0.00 89 1013.4
20260906044902 22 84 0.0 0.0 0.00 0.00 0.00 89 1013.2
20260906044403 22 84 0.0 0.0 0.00 0.00 0.00 89 1013.4
20260906043858 22 84 0.0 0.0 0.00 0.00 0.00 89 1013.4
20260906043354 22 84 1.6 1.6 0.00 0.00 0.00 88 1013.0
20260906042849 22 84 0.0 0.0 0.00 0.00 0.00 88 1013.2
20260906042348 22 87 0.0 0.0 0.00 0.00 0.00 88 1013.2
20260906041844 22 78 0.0 0.0 0.00 0.00 0.00 88 1013.3
20260906041339 22 80 0.0 0.0 0.00 0.00 0.00 88 1013.2
20260906040839 22 89 1.6 1.6 0.00 0.00 0.00 88 1013.4
20260906040335 22 100 0.0 1.6 0.00 0.00 0.00 89 1013.2
20260906035830 22 50 3.2 3.2 0.00 0.86 0.86 88 1013.1
20260906035325 22 80 3.2 4.8 0.00 0.86 0.86 88 1013.4
20260906034821 22 74 0.0 0.0 0.00 0.86 0.86 88 1013.1
20260906034321 22 86 4.8 8.0 0.00 0.86 0.86 88 1013.3
20260906033816 23 91 0.0 0.0 0.00 0.86 0.86 87 1013.3
20260906033315 23 63 4.8 4.8 0.00 0.86 0.86 87 1013.2
20260906032812 23 76 0.0 1.6 0.00 0.86 0.86 86 1013.3
20260906032308 23 85 0.0 1.6 0.00 0.86 0.86 86 1013.2
20260906031803 23 90 0.0 1.6 0.00 0.86 0.86 86 1013.3
20260906031258 23 87 1.6 3.2 0.00 0.86 0.86 86 1013.4
20260906030758 23 63 4.8 8.0 0.00 0.86 0.86 86 1013.5
20260906030253 23 79 3.2 4.8 0.00 0.86 0.86 85 1013.8
20260906025753 23 108 6.4 9.7 0.00 0.86 0.86 85 1013.4
20260906025247 23 72 1.6 3.2 0.00 0.86 0.86 85 1013.6
20260906024746 23 67 3.2 4.8 0.00 0.86 0.86 85 1013.5
20260906024245 23 88 1.6 3.2 0.00 0.86 0.86 84 1013.4
20260906023741 23 84 8.0 11.3 0.00 0.86 0.86 84 1013.5
20260906023236 23 118 8.0 9.7 0.00 0.86 0.86 84 1013.5
20260906022732 23 87 4.8 9.7 0.00 0.86 0.86 83 1013.5
20260906022227 24 111 4.8 4.8 0.00 0.86 0.86 83 1013.6
20260906021723 24 57 3.2 4.8 0.00 0.86 0.86 83 1013.7
20260906021221 24 77 1.6 3.2 0.00 0.86 0.86 83 1013.7
20260906020717 24 68 1.6 3.2 0.00 0.86 0.86 83 1013.4
20260906020211 24 50 4.8 8.0 0.00 0.86 0.86 83 1013.5
20260906015706 24 88 4.8 8.0 0.00 0.86 0.86 82 1013.2
20260906015205 24 90 6.4 9.7 0.00 0.86 0.86 82 1013.2
20260906014704 24 106 3.2 3.2 0.00 0.86 0.86 82 1013.3
20260906014201 24 96 0.0 1.6 0.00 0.86 0.86 83 1013.1
20260906013656 24 79 1.6 1.6 0.00 0.86 0.86 83 1013.1
20260906013151 24 79 1.6 1.6 0.00 0.86 0.86 82 1012.8
20260906012651 25 80 0.0 0.0 0.00 0.86 0.86 82 1013.0
20260906012145 24 98 0.0 1.6 0.00 0.86 0.86 82 1012.8
20260906011641 24 83 1.6 1.6 0.00 0.86 0.86 83 1012.6
20260906011137 24 57 0.0 1.6 0.00 0.86 0.86 84 1012.5
20260906010632 24 58 0.0 0.0 0.00 0.86 0.86 84 1012.1
20260906010128 24 58 0.0 0.0 0.00 0.86 0.86 83 1012.1
20260906005627 25 58 0.0 0.0 0.00 0.86 0.86 82 1011.9
20260906005127 25 58 0.0 0.0 0.00 0.86 0.86 82 1012.3
20260906004626 25 58 0.0 0.0 0.00 0.86 0.86 81 1012.3
20260906004121 25 58 0.0 0.0 0.00 0.86 0.86 81 1012.3
20260906003616 25 58 0.0 0.0 0.00 0.86 0.86 81 1012.3
20260906003112 25 58 0.0 0.0 0.00 0.86 0.86 81 1012.5
20260906002606 25 58 0.0 0.0 0.00 0.86 0.86 81 1012.5
20260906002101 25 57 0.0 1.6 0.00 0.86 0.86 80 1012.3
20260906001556 25 57 0.0 0.0 0.00 0.86 0.86 80 1012.1
20260906001051 25 57 0.0 0.0 0.00 0.86 0.86 79 1012.2
20260906000547 26 57 0.0 0.0 0.00 0.86 0.86 78 1012.1
20260906000042 26 57 0.0 0.0 0.00 0.86 0.86 76 1012.3
20260905235535 26 57 0.0 1.6 0.00 0.86 0.86 75 1012.0
20260905235030 26 58 1.6 1.6 0.00 0.86 0.86 74 1012.4
20260905234527 27 58 1.6 1.6 0.00 0.86 0.86 73 1012.1
20260905234026 27 59 1.6 1.6 0.00 0.86 0.86 71 1012.4
20260905233521 27 73 0.0 0.0 0.00 0.86 0.86 71 1012.1
20260905233021 28 88 1.6 1.6 0.00 0.86 0.86 70 1012.0
20260905232516 28 168 1.6 1.6 0.00 0.86 0.86 68 1011.8
20260905232012 28 111 3.2 3.2 0.00 0.86 0.86 66 1012.2
20260905231507 28 57 1.6 1.6 0.00 0.86 0.86 65 1011.9
20260905231003 28 72 0.0 1.6 0.00 0.86 0.86 65 1011.9
20260905230502 29 124 1.6 1.6 0.00 0.86 0.86 64 1012.0
20260905230000 29 111 1.6 1.6 0.00 0.86 0.86 62 1011.7
20260905225455 30 71 3.2 3.2 0.00 0.86 0.86 61 1012.0
20260905224951 30 188 3.2 3.2 0.00 0.86 0.86 61 1012.0
20260905224446 30 73 1.6 3.2 0.00 0.86 0.86 60 1012.2
20260905223945 30 140 4.8 4.8 0.00 0.86 0.86 59 1012.0
20260905223443 30 271 4.8 4.8 0.00 0.86 0.86 57 1012.0
20260905222938 30 216 6.4 9.7 0.00 0.86 0.86 57 1011.8
20260905222438 30 104 1.6 1.6 0.00 0.86 0.86 58 1012.0
20260905221933 30 134 3.2 3.2 0.00 0.86 0.86 59 1012.0
20260905221430 30 50 6.4 9.7 0.00 0.86 0.86 58 1011.8
20260905220926 30 294 4.8 4.8 0.00 0.86 0.86 58 1012.0
20260905220422 30 52 1.6 3.2 0.00 0.86 0.86 56 1011.9
20260905215920 30 249 1.6 3.2 0.00 0.86 0.86 56 1011.9
20260905215416 30 50 4.8 4.8 0.00 0.86 0.86 55 1012.2
20260905214913 30 113 3.2 3.2 0.00 0.86 0.86 57 1011.9
20260905214408 31 286 8.0 9.7 0.00 0.86 0.86 55 1011.9
20260905213908 30 275 4.8 4.8 0.00 0.86 0.86 55 1011.8
20260905213404 30 85 1.6 3.2 0.00 0.86 0.86 56 1011.8
20260905212859 30 70 1.6 1.6 0.00 0.86 0.86 56 1011.6
20260905212354 29 63 3.2 3.2 0.00 0.86 0.86 57 1012.0
20260905211847 30 333 4.8 8.0 0.00 0.86 0.86 55 1011.9
20260905211343 30 263 3.2 3.2 0.00 0.86 0.86 55 1011.8
20260905210840 30 45 6.4 8.0 0.00 0.86 0.86 54 1011.9
20260905210340 31 59 1.6 1.6 0.00 0.86 0.86 53 1011.8
20260905205839 30 132 4.8 4.8 0.00 0.86 0.86 54 1011.8
20260905205339 31 46 3.2 3.2 0.00 0.86 0.86 53 1012.0
20260905204833 31 39 4.8 4.8 0.00 0.86 0.86 53 1011.9
20260905204330 31 109 3.2 3.2 0.00 0.86 0.86 52 1012.0
20260905203827 31 105 1.6 1.6 0.00 0.86 0.86 51 1012.1
20260905203324 31 209 4.8 4.8 0.00 0.86 0.86 51 1011.9
20260905202819 30 241 4.8 4.8 0.00 0.86 0.86 52 1012.2
20260905202313 31 246 4.8 4.8 0.00 0.86 0.86 52 1012.2
20260905201809 32 184 4.8 4.8 0.00 0.86 0.86 48 1012.1
20260905201304 32 159 1.6 1.6 0.00 0.86 0.86 48 1012.1
20260905200759 31 181 3.2 3.2 0.00 0.86 0.86 50 1012.3
20260905200255 32 108 3.2 3.2 0.00 0.86 0.86 50 1012.2
20260905195752 32 199 4.8 8.0 0.00 0.86 0.86 50 1012.2
20260905195247 32 129 3.2 3.2 0.00 0.86 0.86 51 1012.5
20260905194744 31 139 3.2 4.8 0.00 0.86 0.86 53 1012.4
20260905194243 32 170 6.4 8.0 0.00 0.86 0.86 52 1012.6
20260905193742 31 145 4.8 4.8 0.00 0.86 0.86 52 1012.4
20260905193237 30 111 1.6 3.2 0.00 0.86 0.86 55 1012.6
20260905192733 31 147 1.6 1.6 0.00 0.86 0.86 54 1012.8
20260905192229 31 235 4.8 8.0 0.00 0.86 0.86 54 1012.8
20260905191728 31 140 4.8 8.0 0.00 0.86 0.86 54 1012.7
20260905191226 30 217 4.8 4.8 0.00 0.86 0.86 55 1012.8
20260905190726 29 163 3.2 3.2 0.00 0.86 0.86 57 1013.1
20260905190224 30 275 8.0 9.7 0.00 0.86 0.86 57 1013.2
20260905185724 30 261 8.0 11.3 0.00 0.86 0.86 56 1013.2
20260905185218 30 96 3.2 3.2 0.00 0.86 0.86 57 1013.1
20260905184713 30 177 4.8 4.8 0.00 0.86 0.86 57 1013.0
20260905184212 31 211 6.4 8.0 0.00 0.86 0.86 54 1013.2
20260905183712 30 153 3.2 3.2 0.00 0.86 0.86 55 1013.3
20260905183207 30 185 4.8 8.0 0.00 0.86 0.86 55 1013.2
20260905182701 30 70 1.6 1.6 0.00 0.86 0.86 56 1013.3
20260905182200 29 133 1.6 1.6 0.00 0.86 0.86 60 1013.5
20260905181656 29 178 4.8 4.8 0.00 0.86 0.86 59 1013.5
20260905181154 29 140 1.6 3.2 0.00 0.86 0.86 60 1013.3
20260905180649 28 124 4.8 4.8 0.00 0.86 0.86 61 1013.6
20260905180145 30 205 8.0 9.7 0.00 0.86 0.86 59 1013.8
20260905175643 29 219 4.8 4.8 0.00 0.86 0.86 58 1013.5
20260905175139 30 207 3.2 4.8 0.00 0.86 0.86 58 1013.7
20260905174635 28 203 1.6 4.8 0.00 0.86 0.86 63 1013.8
20260905174130 28 227 1.6 3.2 0.00 0.86 0.86 64 1013.9
20260905173626 28 281 6.4 8.0 0.00 0.86 0.86 65 1013.9
20260905173123 30 111 1.6 3.2 0.00 0.86 0.86 60 1013.7
20260905172621 29 142 4.8 4.8 0.00 0.86 0.86 60 1013.8
20260905172116 29 218 4.8 8.0 0.00 0.86 0.86 62 1014.0
20260905171612 28 127 1.6 1.6 0.00 0.86 0.86 64 1014.0
20260905171108 28 159 3.2 3.2 0.00 0.86 0.86 63 1014.0
20260905170604 28 171 4.8 8.0 0.00 0.86 0.86 63 1014.1
20260905170059 28 183 4.8 8.0 0.00 0.86 0.86 64 1014.2
20260905165554 28 206 6.4 8.0 0.00 0.86 0.86 63 1014.0
20260905165049 27 130 4.8 4.8 0.00 0.86 0.86 68 1014.1
20260905164544 28 134 9.7 11.3 0.00 0.86 0.86 64 1013.8
20260905164044 28 113 0.0 1.6 0.00 0.86 0.86 67 1013.8
20260905163540 27 160 12.9 14.5 0.00 0.86 0.86 66 1013.8
20260905163036 27 119 6.4 8.0 0.00 0.86 0.86 68 1014.1
20260905162532 27 118 8.0 9.7 0.00 0.86 0.86 66 1014.2
20260905162026 27 114 1.6 3.2 0.00 0.86 0.86 68 1014.5
20260905161526 27 138 6.4 9.7 0.00 0.86 0.86 70 1014.4
20260905161024 27 63 4.8 4.8 0.00 0.86 0.86 66 1014.6
20260905160517 26 135 0.0 1.6 0.00 0.86 0.86 72 1014.5
20260905160012 27 115 6.4 9.7 0.00 0.86 0.86 70 1014.6
20260905155512 26 100 1.6 1.6 0.00 0.86 0.86 71 1014.9
20260905155010 26 85 0.0 1.6 0.00 0.86 0.86 71 1014.5
20260905154506 27 107 4.8 4.8 0.00 0.86 0.86 71 1014.6
20260905154001 26 49 1.6 3.2 0.00 0.86 0.86 73 1014.7
20260905153457 26 97 1.6 3.2 0.00 0.86 0.86 73 1014.5
20260905152951 25 131 6.4 9.7 0.00 0.86 0.86 75 1014.5
20260905152451 25 107 0.0 1.6 0.00 0.86 0.86 79 1014.4
20260905151946 23 68 1.6 3.2 0.00 0.86 0.86 82 1014.4
20260905151441 24 99 1.6 1.6 0.00 0.86 0.86 81 1014.7
20260905150936 24 74 3.2 4.8 0.00 0.86 0.86 80 1014.5
20260905150437 23 25 4.8 8.0 0.00 0.86 0.86 81 1014.7
20260905145933 23 80 1.6 4.8 0.00 0.86 0.86 85 1014.8
20260905145427 24 70 1.6 3.2 0.00 0.86 0.86 83 1014.8
20260905144927 23 94 1.6 3.2 0.00 0.86 0.86 85 1014.9
20260905144422 23 22 3.2 4.8 0.00 0.86 0.86 87 1014.7
20260905143921 23 25 1.6 3.2 0.00 0.86 0.86 88 1014.7
20260905143415 23 102 0.0 1.6 0.00 0.86 0.86 88 1014.8
20260905142914 23 75 3.2 4.8 0.00 0.86 0.86 88 1014.9
20260905142413 23 96 1.6 1.6 0.00 0.86 0.86 89 1014.9
20260905141909 23 40 4.8 8.0 0.00 0.86 0.86 90 1014.8
20260905141404 22 79 0.0 1.6 0.00 0.86 0.86 92 1014.4
20260905140900 22 313 3.2 3.2 0.00 0.86 0.86 92 1014.3
20260905140355 22 311 6.4 8.0 0.00 0.86 0.86 92 1014.2
20260905135854 22 325 4.8 8.0 0.00 0.86 0.86 92 1013.8
20260905135350 22 81 4.8 4.8 0.00 0.86 0.86 93 1013.7
20260905134845 22 103 3.2 4.8 0.00 0.86 0.86 93 1012.9
20260905134343 22 323 12.9 14.5 0.00 0.86 0.86 92 1012.7
20260905133838 22 207 11.3 14.5 0.00 0.86 0.86 93 1011.7